User: anonymous
Location: Unspecified
(0.0000°N, 0.0000°E)
Time: 15:22:24
(UTC+02:00)
Language:

CZ-4 DEB - Orbit

View from above orbital plane
View from above orbital plane
View from above satellite
View from above satellite

Ground track
Ground track

The orbit data is extracted from the following two-line orbital elements,

1 29508U 06046D   14235.01586089  .00008400  00000-0  47846-3 0  6498
2 29508 097.7042 242.5787 0008180 078.7315 336.8868 15.13048218427422
Epoch (UTC): 23 August 2014 00:22:50
Eccentricity: 0.0008180
inclination: 97.7042°
perigee height: 521 km
apogee height: 532 km
right ascension of ascending node: 242.5787°
argument of perigee: 78.7315°
revolutions per day: 15.13048218
mean anomaly at epoch: 336.8868°
orbit number at epoch: 42742

The dashed part of the orbit path shows where the satellite is in the earth's shadow,  

DLR